Total_Precipitation_Accumulation
0.39 0.78 1.03 0.90 0.83 0.81 0.77 0.77 0.81 0.69 0.60 0.63 0.58 0.52 0.55 0.59 0.63 0.56 0.57 0.57 0.48 0.43 0.47 0.46 0.41 0.44 0.48 0.61 0.73 0.93 1.32 1.75 1.92 1.81 1.79 1.85 1.90 1.84 1.73 1.70 1.67 1.74 1.74 1.73
0.46 0.56 0.43 0.46 0.53 0.64 0.72 0.78 0.81 0.72 0.51 0.51 0.51 0.45 0.45 0.51 0.52 0.48 0.45 0.48 0.44 0.41 0.38 0.36 0.35 0.39 0.43 0.62 0.79 0.93 1.24 1.69 1.89 2.02 2.13 2.32 2.48 2.34 2.19 2.19 2.14 2.20 2.23 2.40
0.39 0.34 0.26 0.37 0.55 0.68 0.72 0.74 0.73 0.66 0.51 0.47 0.46 0.49 0.43 0.48 0.42 0.40 0.40 0.41 0.37 0.31 0.30 0.32 0.32 0.37 0.41 0.55 0.71 0.87 1.09 1.39 1.73 1.99 2.23 2.50 2.72 2.70 2.58 2.43 2.40 2.46 2.53 2.66
0.37 0.30 0.30 0.37 0.46 0.58 0.74 0.51 0.47 0.47 0.61 0.62 0.47 0.71 0.51 0.49 0.44 0.39 0.39 0.39 0.38 0.32 0.31 0.35 0.34 0.36 0.41 0.51 0.63 0.81 1.02 1.27 1.51 1.73 2.11 2.54 2.82 2.92 2.83 2.73 2.68 2.66 2.67 2.70
0.34 0.27 0.30 0.35 0.35 0.43 0.56 0.43 0.44 0.46 0.56 0.52 0.37 0.51 0.50 0.42 0.44 0.39 0.36 0.34 0.34 0.33 0.34 0.37 0.39 0.43 0.50 0.56 0.64 0.79 0.96 1.20 1.45 1.65 1.99 2.38 2.64 2.83 2.95 2.78 2.64 2.67 2.68 2.69
0.29 0.21 0.23 0.29 0.32 0.35 0.44 0.48 0.47 0.50 0.57 0.62 0.30 0.43 0.55 0.39 0.37 0.38 0.34 0.30 0.33 0.36 0.40 0.44 0.55 0.61 0.65 0.62 0.69 0.83 0.96 1.12 1.28 1.40 1.62 1.84 2.17 2.38 2.69 2.68 2.59 2.71 2.68 2.60
0.34 0.28 0.23 0.26 0.33 0.35 0.43 0.67 0.89 0.91 0.88 0.58 0.24 0.39 0.54 0.40 0.32 0.33 0.33 0.32 0.36 0.39 0.43 0.52 0.67 0.76 0.80 0.72 0.72 0.80 0.97 1.06 1.15 1.24 1.33 1.46 1.68 1.81 2.16 2.48 2.44 2.35 2.39 2.44
0.39 0.39 0.24 0.23 0.30 0.35 0.37 0.59 0.94 1.08 0.95 0.60 0.39 0.57 0.61 0.45 0.37 0.32 0.32 0.35 0.39 0.44 0.50 0.68 0.86 0.94 0.94 0.86 0.81 0.87 1.04 1.12 1.16 1.19 1.24 1.32 1.40 1.44 1.60 1.81 1.91 1.92 1.96 2.18
0.40 0.34 0.21 0.22 0.22 0.25 0.34 0.41 0.46 0.66 0.63 0.67 0.61 0.69 0.62 0.42 0.40 0.40 0.42 0.47 0.58 0.66 0.71 0.85 1.01 1.11 1.03 0.92 0.85 0.92 1.05 1.20 1.23 1.27 1.33 1.40 1.38 1.32 1.40 1.41 1.52 1.69 1.72 1.77
0.44 0.39 0.25 0.23 0.25 0.25 0.25 0.32 0.49 0.71 0.92 0.95 0.75 0.75 0.74 0.62 0.56 0.52 0.56 0.61 0.74 0.84 0.92 1.01 1.16 1.22 1.11 0.99 0.92 0.97 1.08 1.21 1.40 1.54 1.49 1.45 1.50 1.51 1.70 1.72 1.55 1.49 1.63 1.67
0.56 0.55 0.33 0.28 0.27 0.28 0.30 0.40 0.55 0.75 0.78 1.06 1.19 1.08 0.83 0.76 0.74 0.76 0.80 0.84 0.90 1.02 1.03 1.03 1.14 1.23 1.14 0.97 0.92 0.92 0.98 1.10 1.23 1.28 1.33 1.30 1.39 1.49 1.73 1.92 1.87 1.67 1.63 1.63
0.53 0.70 0.50 0.32 0.30 0.32 0.39 0.52 0.74 1.12 1.06 0.96 1.17 1.15 0.81 0.74 0.78 0.78 0.79 0.79 0.84 0.94 0.94 0.99 1.05 1.01 0.94 0.82 0.76 0.78 0.81 0.92 1.07 1.08 1.14 1.22 1.25 1.34 1.45 1.57 1.60 1.52 1.39 1.33
0.68 0.92 0.90 0.73 0.66 0.51 0.58 0.60 0.70 0.92 1.05 1.07 1.20 1.14 0.75 0.69 0.64 0.66 0.70 0.73 0.75 0.74 0.74 0.77 0.81 0.79 0.78 0.80 0.79 0.76 0.76 0.86 0.94 1.01 1.09 1.19 1.18 1.19 1.19 1.21 1.16 1.18 1.16 1.19
0.68 0.78 0.88 0.94 0.87 0.80 0.76 0.64 0.61 0.85 1.15 1.05 0.99 0.92 0.74 0.65 0.61 0.64 0.66 0.68 0.70 0.63 0.56 0.59 0.62 0.67 0.74 0.78 0.80 0.77 0.73 0.81 0.93 1.10 1.19 1.25 1.25 1.25 1.24 1.20 1.16 1.17 1.16 1.19
0.57 0.58 0.46 0.43 0.44 0.57 0.60 0.53 0.54 0.63 0.74 0.90 0.84 0.78 0.64 0.60 0.65 0.68 0.67 0.62 0.58 0.51 0.45 0.47 0.50 0.56 0.60 0.65 0.70 0.72 0.70 0.76 0.84 0.99 1.13 1.20 1.28 1.35 1.27 1.14 1.07 1.13 1.11 1.10
0.45 0.51 0.39 0.32 0.31 0.41 0.48 0.46 0.48 0.50 0.55 0.66 0.71 0.70 0.55 0.50 0.49 0.51 0.49 0.42 0.43 0.44 0.38 0.37 0.41 0.45 0.47 0.51 0.55 0.57 0.64 0.81 0.85 0.92 1.00 1.20 1.30 1.24 1.18 1.07 1.03 1.03 1.01 1.00
0.43 0.54 0.62 0.49 0.37 0.44 0.67 0.62 0.62 0.64 0.59 0.62 0.57 0.47 0.32 0.31 0.32 0.37 0.38 0.36 0.39 0.38 0.34 0.31 0.33 0.36 0.37 0.42 0.52 0.58 0.65 0.76 0.80 0.84 0.99 1.19 1.22 1.14 1.06 1.09 1.10 1.03 1.01 1.04
0.37 0.56 0.77 0.60 0.58 0.92 0.99 0.70 0.67 0.65 0.45 0.32 0.27 0.23 0.21 0.27 0.26 0.25 0.26 0.29 0.32 0.31 0.28 0.27 0.28 0.29 0.32 0.36 0.44 0.51 0.58 0.64 0.69 0.75 0.88 1.06 1.09 1.07 1.10 1.09 1.06 0.97 0.92 0.91
0.33 0.58 0.85 0.73 0.74 0.87 0.77 0.51 0.45 0.48 0.36 0.20 0.18 0.19 0.19 0.22 0.21 0.17 0.18 0.19 0.20 0.22 0.19 0.19 0.20 0.24 0.27 0.27 0.32 0.39 0.43 0.48 0.53 0.63 0.77 0.87 0.88 0.94 0.98 0.96 0.97 0.92 0.83 0.82
0.46 0.64 0.94 0.88 0.99 0.94 0.54 0.32 0.30 0.40 0.53 0.23 0.17 0.18 0.15 0.16 0.22 0.18 0.13 0.12 0.13 0.13 0.13 0.13 0.15 0.19 0.23 0.22 0.24 0.29 0.36 0.40 0.44 0.55 0.68 0.77 0.79 0.81 0.84 0.90 0.92 0.92 0.86 0.82
0.51 0.67 0.81 0.85 1.06 0.87 0.43 0.30 0.32 0.55 0.64 0.32 0.22 0.18 0.15 0.14 0.15 0.13 0.11 0.10 0.11 0.11 0.11 0.11 0.13 0.20 0.23 0.23 0.23 0.23 0.29 0.32 0.38 0.44 0.56 0.64 0.67 0.73 0.83 0.92 0.94 0.98 0.94 0.89
0.63 0.69 0.69 0.78 1.00 0.92 0.44 0.39 0.50 0.55 0.41 0.32 0.26 0.22 0.16 0.12 0.09 0.08 0.08 0.09 0.10 0.10 0.10 0.10 0.13 0.20 0.23 0.24 0.23 0.22 0.24 0.29 0.33 0.34 0.42 0.56 0.65 0.72 0.81 0.91 0.96 0.95 0.96 0.97
0.64 0.70 0.74 0.84 0.96 0.66 0.45 0.48 0.47 0.41 0.38 0.27 0.20 0.18 0.16 0.13 0.11 0.08 0.08 0.09 0.10 0.10 0.10 0.11 0.14 0.19 0.18 0.21 0.24 0.25 0.27 0.28 0.27 0.29 0.33 0.41 0.49 0.54 0.64 0.75 0.86 0.92 0.91 0.92
0.49 0.46 0.57 0.67 0.59 0.39 0.37 0.38 0.34 0.32 0.28 0.21 0.18 0.15 0.13 0.12 0.11 0.10 0.10 0.10 0.11 0.11 0.11 0.12 0.16 0.18 0.18 0.19 0.22 0.25 0.27 0.27 0.28 0.29 0.31 0.33 0.37 0.39 0.47 0.62 0.70 0.74 0.79 0.85
0.43 0.50 0.57 0.65 0.58 0.42 0.34 0.33 0.30 0.27 0.21 0.18 0.20 0.19 0.17 0.14 0.12 0.10 0.09 0.09 0.10 0.11 0.11 0.13 0.15 0.18 0.20 0.20 0.20 0.22 0.23 0.24 0.27 0.29 0.30 0.30 0.32 0.36 0.41 0.49 0.63 0.71 0.76 0.83
0.35 0.46 0.62 0.69 0.59 0.54 0.39 0.31 0.26 0.23 0.20 0.17 0.17 0.19 0.20 0.22 0.19 0.13 0.10 0.09 0.10 0.11 0.12 0.14 0.16 0.17 0.20 0.21 0.19 0.21 0.23 0.24 0.30 0.34 0.33 0.33 0.35 0.38 0.42 0.47 0.57 0.65 0.67 0.69